Regional Weather Roundup
Issued by NWS Spokane, WA

Home | Current Version | Previous Version | Text Only | Print | Product List | Glossary On
Versions: 1 2 3 4 5 6 7 8 9 10 11 12 13 14 15 16 17 18 19 20 21 22 23 24 25 26 27 28 29 30 31 32 33 34 35 36 37 38 39 40 41 42 43 44 45 46 47 48 49 50
345
NZUS01 KOTX 210910
RWROTX

Eastern Washington/Northern Idaho Roundup
National Weather Service, Spokane WA
200 AM PDT MON MAY 21 2018

Note: "fair" indicated few or no clouds below 12,000 feet with no
significant weather and/or obstructions to visibility.

...Northeast Washington and Northern Idaho Panhandle...

CITY           SKY/WX    TMP DP  RH WIND       PRES   REMARKS
Spokane Intl   CLOUDY    60  51  72 SW7       29.90S
Spokane Downto CLOUDY    60  52  74 CALM      29.90R
Coeur d Alene  MOCLDY    60  52  74 S7        29.91R
Deer Park      CLOUDY    55  51  86 E3        29.90R
Sandpoint      PTCLDY    48  45  87 CALM      29.90S
Bonners Ferry  FAIR      50  45  81 CALM      29.91R

...Southeast Washington and southern Idaho Panhandle...

CITY           SKY/WX    TMP DP  RH WIND       PRES   REMARKS
Walla Walla    CLOUDY    64  51  62 S9        29.91R
Pullman/Moscow CLOUDY    59  55  87 CALM      29.93S
Lewiston       CLOUDY    62  57  83 CALM      29.89R
Lowell           N/A     56  54  93 CALM      29.91R
Grangeville    CLOUDY    55  54  94 CALM      29.93S

...Columbia Basin...

CITY           SKY/WX    TMP DP  RH WIND       PRES   REMARKS
Ephrata        CLEAR     62  44  51 NW16      29.87R
Moses Lake     CLEAR     58  45  62 NW6       29.88S
Pasco          MOCLDY    61  54  77 NW6       29.89R
Richland       PTSUNNY   63  49  60 NW6       29.89R
Hermiston      CLOUDY    64  46  52 SW10      29.90R
Pendleton      CLOUDY    61  50  67 CALM      29.92R

...East Slopes Cascades...

CITY           SKY/WX    TMP DP  RH WIND       PRES   REMARKS
The Dalles     MOCLDY    60  46  59 NW16      29.95R
Yakima         CLEAR     58  44  60 NW10      29.93S
Ellensburg     CLEAR     54  44  69 NW18G29   29.94F
Wenatchee      CLEAR     58  44  60 NW15      29.93R
Winthrop       CLOUDY    48  45  88 N3        29.95R
Omak           CLEAR     54  49  83 N9        29.91R
Sunnyside      SUNNY     52  44  75 CALM      29.90S

...Southern British Columbia...

CITY           SKY/WX    TMP DP  RH WIND       PRES   REMARKS
Penticton      PTCLDY    54  45  71 N6        29.93S
Cranbrook      PTCLDY    52  39  62 W10G18    29.93R
Osoyoos          N/A     57  48  72 NE2         N/A
Creston          N/A     55  43  62 N2          N/A

...Western Montana...

CITY           SKY/WX    TMP DP  RH WIND       PRES   REMARKS
Kalispell      PTSUNNY   50  48  93 N3        29.90R
Libby            N/A     48  45  87 CALM      29.90R
Missoula       CLOUDY    54  48  80 W6        29.93S

...Neighboring Cities...

CITY           SKY/WX    TMP DP  RH WIND       PRES   REMARKS
Seattle        MOCLDY    56  49  77 N7        30.06F
Portland       CLEAR     53  46  77 NW6       30.06S
Boise          CLOUDY    57  55  93 CALM      29.91R
Great Falls    MOCLDY    51  46  83 W7        29.90R
Calgary        PTCLDY    55  32  41 N9        29.87R



USA.gov is the U.S. government's official web portal to all federal, state and local government web resources and services.